START_TIME,STEP,MOV.,P1,t_acc.,E44,t_acc.,A3,t_acc.,P10,t_acc.
1979-07-02 15:00:24.120 ,1,0,1.,1.2,8.,1.2,0.,1.2,0.,1.2
1979-07-02 15:00:25.320 ,1,0,0.,1.2,9.,1.2,0.,1.2,0.,1.2
1979-07-02 15:00:26.520 ,1,0,0.,1.2,6.,1.2,0.,1.2,0.,1.2
1979-07-02 15:00:27.720 ,1,0,0.,1.2,2.,1.2,0.,1.2,0.,1.2
1979-07-02 15:00:28.920 ,1,0,2.,1.2,6.,1.2,0.,1.2,0.,1.2
1979-07-02 15:00:30.120 ,1,0,1.,1.2,10.,1.2,0.,1.2,0.,1.2
1979-07-02 15:00:31.320 ,1,0,0.,1.2,5.,1.2,0.,1.2,0.,1.2
1979-07-02 15:00:32.520 ,1,0,0.,1.2,6.,1.2,0.,1.2,0.,1.2
1979-07-02 15:00:33.720 ,1,0,3.,1.2,3.,1.2,0.,1.2,0.,1.2
1979-07-02 15:00:34.920 ,1,0,1.,1.2,9.,1.2,0.,1.2,0.,1.2
1979-07-02 15:00:36.120 ,1,0,1.,1.2,4.,1.2,0.,1.2,0.,1.2
1979-07-02 15:00:37.320 ,1,0,2.,1.2,4.,1.2,0.,1.2,0.,1.2
1979-07-02 15:00:38.520 ,1,0,1.,1.2,6.,1.2,0.,1.2,0.,1.2
1979-07-02 15:00:39.720 ,1,0,1.,1.2,2.,1.2,0.,1.2,0.,1.2
1979-07-02 15:00:40.920 ,1,0,1.,1.2,3.,1.2,0.,1.2,0.,1.2
1979-07-02 15:00:42.120 ,1,0,2.,1.2,8.,1.2,0.,1.2,0.,1.2
1979-07-02 15:00:43.320 ,1,0,0.,1.2,5.,1.2,0.,1.2,0.,1.2
1979-07-02 15:00:44.520 ,1,0,0.,1.2,6.,1.2,0.,1.2,0.,1.2
1979-07-02 15:00:45.720 ,1,0,0.,1.2,4.,1.2,0.,1.2,0.,1.2
1979-07-02 15:00:46.920 ,1,0,1.,1.2,4.,1.2,0.,1.2,0.,1.2
1979-07-02 15:00:48.120 ,2,0,1.,1.2,6.,1.2,0.,1.2,0.,1.2
1979-07-02 15:00:49.320 ,2,0,1.,1.2,9.,1.2,0.,1.2,0.,1.2
1979-07-02 15:00:50.520 ,2,0,0.,1.2,2.,1.2,0.,1.2,0.,1.2
1979-07-02 15:00:51.720 ,2,0,1.,1.2,8.,1.2,0.,1.2,0.,1.2
1979-07-02 15:00:52.920 ,2,0,1.,1.2,6.,1.2,1.,1.2,0.,1.2
1979-07-02 15:00:54.120 ,2,0,2.,1.2,148.,1.2,0.,1.2,0.,1.2
1979-07-02 15:00:55.320 ,2,0,1.,1.2,7.,1.2,0.,1.2,0.,1.2
1979-07-02 15:00:56.520 ,2,0,0.,1.2,3.,1.2,0.,1.2,0.,1.2
1979-07-02 15:00:57.720 ,2,0,1.,1.2,6.,1.2,0.,1.2,0.,1.2
1979-07-02 15:00:58.920 ,2,0,1.,1.2,4.,1.2,0.,1.2,0.,1.2
1979-07-02 15:01:00.120 ,2,0,0.,1.2,5.,1.2,0.,1.2,0.,1.2
1979-07-02 15:01:01.320 ,2,0,0.,1.2,3.,1.2,0.,1.2,0.,1.2
1979-07-02 15:01:02.520 ,2,0,1.,1.2,6.,1.2,0.,1.2,0.,1.2
1979-07-02 15:01:03.720 ,2,0,0.,1.2,5.,1.2,0.,1.2,0.,1.2
1979-07-02 15:01:04.920 ,2,0,0.,1.2,6.,1.2,0.,1.2,0.,1.2
1979-07-02 15:01:06.120 ,2,0,3.,1.2,6.,1.2,0.,1.2,0.,1.2
1979-07-02 15:01:07.320 ,2,0,0.,1.2,4.,1.2,0.,1.2,0.,1.2
1979-07-02 15:01:08.520 ,2,0,0.,1.2,6.,1.2,0.,1.2,0.,1.2
1979-07-02 15:01:09.720 ,2,0,2.,1.2,6.,1.2,0.,1.2,0.,1.2
1979-07-02 15:01:10.920 ,2,0,2.,1.2,5.,1.2,0.,1.2,0.,1.2
1979-07-02 15:01:12.120 ,2,0,1.,1.2,6.,1.2,1.,1.2,0.,1.2
1979-07-02 15:01:13.320 ,2,0,0.,1.2,7.,1.2,1.,1.2,0.,1.2
1979-07-02 15:01:14.520 ,2,0,1.,1.2,4.,1.2,0.,1.2,0.,1.2
1979-07-02 15:01:15.720 ,2,0,0.,1.2,8.,1.2,0.,1.2,0.,1.2
1979-07-02 15:01:16.920 ,2,0,0.,1.2,3.,1.2,0.,1.2,0.,1.2
1979-07-02 15:01:18.120 ,2,0,1.,1.2,7.,1.2,0.,1.2,0.,1.2
1979-07-02 15:01:19.320 ,2,0,0.,1.2,10.,1.2,0.,1.2,0.,1.2
1979-07-02 15:01:20.520 ,2,0,2.,1.2,4.,1.2,0.,1.2,0.,1.2
1979-07-02 15:01:21.720 ,2,0,0.,1.2,7.,1.2,0.,1.2,0.,1.2
1979-07-02 15:01:22.920 ,2,0,0.,1.2,6.,1.2,1.,1.2,0.,1.2
1979-07-02 15:01:24.120 ,2,0,0.,1.2,5.,1.2,0.,1.2,0.,1.2
1979-07-02 15:01:25.320 ,2,0,0.,1.2,10.,1.2,0.,1.2,0.,1.2
1979-07-02 15:01:26.520 ,2,0,1.,1.2,5.,1.2,0.,1.2,0.,1.2
1979-07-02 15:01:27.720 ,2,0,1.,1.2,13.,1.2,0.,1.2,0.,1.2
1979-07-02 15:01:28.920 ,2,0,0.,1.2,7.,1.2,0.,1.2,0.,1.2
1979-07-02 15:01:30.120 ,2,0,1.,1.2,2.,1.2,0.,1.2,0.,1.2
1979-07-02 15:01:31.320 ,2,0,1.,1.2,6.,1.2,0.,1.2,0.,1.2
1979-07-02 15:01:32.520 ,2,0,0.,1.2,6.,1.2,0.,1.2,0.,1.2
1979-07-02 15:01:33.720 ,2,0,1.,1.2,6.,1.2,0.,1.2,0.,1.2
1979-07-02 15:01:34.920 ,2,0,2.,1.2,5.,1.2,0.,1.2,0.,1.2
1979-07-02 15:01:36.120 ,3,0,0.,1.2,6.,1.2,0.,1.2,0.,1.2
1979-07-02 15:01:37.320 ,3,0,2.,1.2,7.,1.2,0.,1.2,0.,1.2
1979-07-02 15:01:38.520 ,3,0,0.,1.2,2.,1.2,0.,1.2,0.,1.2
1979-07-02 15:01:39.720 ,3,0,1.,1.2,4.,1.2,0.,1.2,0.,1.2
1979-07-02 15:01:40.920 ,3,0,0.,1.2,3.,1.2,0.,1.2,0.,1.2
1979-07-02 15:01:42.120 ,3,0,1.,1.2,184.,1.2,0.,1.2,0.,1.2
1979-07-02 15:01:43.320 ,3,0,,0,,0,,0,,0
1979-07-02 15:01:44.520 ,3,0,0.,1.2,4.,1.2,0.,1.2,0.,1.2
1979-07-02 15:01:45.720 ,3,0,0.,1.2,4.,1.2,0.,1.2,0.,1.2
1979-07-02 15:01:46.920 ,3,0,0.,1.2,4.,1.2,0.,1.2,0.,1.2
1979-07-02 15:01:48.120 ,3,0,1.,1.2,5.,1.2,0.,1.2,0.,1.2
1979-07-02 15:01:49.320 ,3,0,1.,1.2,3.,1.2,0.,1.2,0.,1.2
1979-07-02 15:01:50.520 ,3,0,0.,1.2,8.,1.2,0.,1.2,0.,1.2
1979-07-02 15:01:51.720 ,3,0,5.,1.2,4.,1.2,0.,1.2,0.,1.2
1979-07-02 15:01:52.920 ,3,0,1.,1.2,2.,1.2,0.,1.2,0.,1.2
1979-07-02 15:01:54.120 ,3,0,0.,1.2,4.,1.2,0.,1.2,0.,1.2
1979-07-02 15:01:55.320 ,3,0,0.,1.2,4.,1.2,0.,1.2,0.,1.2
1979-07-02 15:01:56.520 ,3,0,1.,1.2,7.,1.2,0.,1.2,0.,1.2
1979-07-02 15:01:57.720 ,3,0,0.,1.2,5.,1.2,0.,1.2,0.,1.2
1979-07-02 15:01:58.920 ,3,0,0.,1.2,5.,1.2,0.,1.2,0.,1.2
1979-07-02 15:02:00.120 ,3,0,1.,1.2,7.,1.2,0.,1.2,0.,1.2
1979-07-02 15:02:01.320 ,3,0,0.,1.2,4.,1.2,0.,1.2,0.,1.2
1979-07-02 15:02:02.520 ,3,0,1.,1.2,5.,1.2,0.,1.2,0.,1.2
1979-07-02 15:02:03.720 ,3,0,1.,1.2,4.,1.2,0.,1.2,0.,1.2
1979-07-02 15:02:04.920 ,3,0,2.,1.2,6.,1.2,0.,1.2,0.,1.2
1979-07-02 15:02:06.120 ,3,0,3.,1.2,2.,1.2,0.,1.2,0.,1.2
1979-07-02 15:02:07.320 ,3,0,1.,1.2,2.,1.2,0.,1.2,0.,1.2
1979-07-02 15:02:08.520 ,3,0,0.,1.2,7.,1.2,0.,1.2,0.,1.2
1979-07-02 15:02:09.720 ,3,0,0.,1.2,5.,1.2,0.,1.2,0.,1.2
1979-07-02 15:02:10.920 ,3,0,0.,1.2,2.,1.2,0.,1.2,0.,1.2
1979-07-02 15:02:12.120 ,3,0,1.,1.2,9.,1.2,0.,1.2,1.,1.2
1979-07-02 15:02:13.320 ,3,0,0.,1.2,5.,1.2,0.,1.2,1.,1.2
1979-07-02 15:02:14.520 ,3,0,0.,1.2,1.,1.2,1.,1.2,0.,1.2
1979-07-02 15:02:15.720 ,3,0,2.,1.2,6.,1.2,0.,1.2,0.,1.2
1979-07-02 15:02:16.920 ,3,0,2.,1.2,4.,1.2,0.,1.2,0.,1.2
1979-07-02 15:02:18.120 ,3,0,1.,1.2,6.,1.2,0.,1.2,0.,1.2
1979-07-02 15:02:19.320 ,3,0,0.,1.2,2.,1.2,0.,1.2,0.,1.2
1979-07-02 15:02:20.520 ,3,0,1.,1.2,5.,1.2,0.,1.2,0.,1.2
1979-07-02 15:02:21.720 ,3,0,2.,1.2,8.,1.2,0.,1.2,0.,1.2
1979-07-02 15:02:22.920 ,3,0,0.,1.2,8.,1.2,0.,1.2,0.,1.2
1979-07-02 15:02:24.120 ,4,0,0.,1.2,5.,1.2,0.,1.2,0.,1.2
1979-07-02 15:02:25.320 ,4,0,0.,1.2,5.,1.2,0.,1.2,0.,1.2
1979-07-02 15:02:26.520 ,4,0,1.,1.2,4.,1.2,0.,1.2,0.,1.2
1979-07-02 15:02:27.720 ,4,0,2.,1.2,4.,1.2,0.,1.2,0.,1.2
1979-07-02 15:02:28.920 ,4,0,0.,1.2,5.,1.2,0.,1.2,0.,1.2
1979-07-02 15:02:30.120 ,4,0,0.,1.2,216.,1.2,1.,1.2,0.,1.2
1979-07-02 15:02:31.320 ,4,0,1.,1.2,5.,1.2,0.,1.2,0.,1.2
1979-07-02 15:02:32.520 ,4,0,1.,1.2,6.,1.2,1.,1.2,0.,1.2
1979-07-02 15:02:33.720 ,4,0,1.,1.2,7.,1.2,0.,1.2,0.,1.2
1979-07-02 15:02:34.920 ,4,0,0.,1.2,9.,1.2,0.,1.2,0.,1.2
1979-07-02 15:02:36.120 ,4,0,2.,1.2,4.,1.2,0.,1.2,0.,1.2
1979-07-02 15:02:37.320 ,4,0,2.,1.2,9.,1.2,0.,1.2,0.,1.2
1979-07-02 15:02:38.520 ,4,0,2.,1.2,1.,1.2,0.,1.2,0.,1.2
1979-07-02 15:02:39.720 ,4,0,1.,1.2,2.,1.2,1.,1.2,0.,1.2
1979-07-02 15:02:40.920 ,4,0,3.,1.2,5.,1.2,0.,1.2,0.,1.2
1979-07-02 15:02:42.120 ,4,0,1.,1.2,6.,1.2,0.,1.2,0.,1.2
1979-07-02 15:02:43.320 ,4,0,3.,1.2,5.,1.2,0.,1.2,0.,1.2
1979-07-02 15:02:44.520 ,4,0,2.,1.2,3.,1.2,0.,1.2,0.,1.2
1979-07-02 15:02:45.720 ,4,0,1.,1.2,5.,1.2,0.,1.2,0.,1.2
1979-07-02 15:02:46.920 ,4,0,0.,1.2,5.,1.2,0.,1.2,0.,1.2
1979-07-02 15:02:48.120 ,4,0,1.,1.2,6.,1.2,0.,1.2,0.,1.2
1979-07-02 15:02:49.320 ,4,0,0.,1.2,6.,1.2,1.,1.2,0.,1.2
1979-07-02 15:02:50.520 ,4,0,1.,1.2,3.,1.2,0.,1.2,0.,1.2
1979-07-02 15:02:51.720 ,4,0,0.,1.2,5.,1.2,0.,1.2,0.,1.2
1979-07-02 15:02:52.920 ,4,0,1.,1.2,6.,1.2,0.,1.2,0.,1.2
1979-07-02 15:02:54.120 ,4,0,1.,1.2,7.,1.2,0.,1.2,0.,1.2
1979-07-02 15:02:55.320 ,4,0,2.,1.2,4.,1.2,0.,1.2,0.,1.2
1979-07-02 15:02:56.520 ,4,0,0.,1.2,6.,1.2,0.,1.2,0.,1.2
1979-07-02 15:02:57.720 ,4,0,0.,1.2,4.,1.2,0.,1.2,0.,1.2
1979-07-02 15:02:58.920 ,4,0,0.,1.2,3.,1.2,1.,1.2,0.,1.2
1979-07-02 15:03:00.120 ,4,0,3.,1.2,4.,1.2,0.,1.2,0.,1.2
1979-07-02 15:03:01.320 ,4,0,0.,1.2,14.,1.2,0.,1.2,0.,1.2
1979-07-02 15:03:02.520 ,4,0,0.,1.2,5.,1.2,0.,1.2,0.,1.2
1979-07-02 15:03:03.720 ,4,0,0.,1.2,5.,1.2,0.,1.2,0.,1.2
1979-07-02 15:03:04.920 ,4,0,1.,1.2,2.,1.2,0.,1.2,0.,1.2
1979-07-02 15:03:06.120 ,4,0,0.,1.2,3.,1.2,0.,1.2,0.,1.2
1979-07-02 15:03:07.320 ,4,0,0.,1.2,4.,1.2,0.,1.2,0.,1.2
1979-07-02 15:03:08.520 ,4,0,0.,1.2,7.,1.2,0.,1.2,0.,1.2
1979-07-02 15:03:09.720 ,4,0,2.,1.2,3.,1.2,0.,1.2,0.,1.2
1979-07-02 15:03:10.920 ,4,0,0.,1.2,7.,1.2,0.,1.2,0.,1.2
1979-07-02 15:03:12.120 ,5,0,0.,1.2,6.,1.2,0.,1.2,0.,1.2
1979-07-02 15:03:13.320 ,5,0,1.,1.2,2.,1.2,1.,1.2,0.,1.2
1979-07-02 15:03:14.520 ,5,0,0.,1.2,12.,1.2,1.,1.2,0.,1.2
1979-07-02 15:03:15.720 ,5,0,0.,1.2,5.,1.2,0.,1.2,0.,1.2
1979-07-02 15:03:16.920 ,5,0,1.,1.2,5.,1.2,0.,1.2,0.,1.2
1979-07-02 15:03:18.120 ,5,0,0.,1.2,196.,1.2,0.,1.2,0.,1.2
1979-07-02 15:03:19.320 ,5,0,1.,1.2,6.,1.2,1.,1.2,0.,1.2
1979-07-02 15:03:20.520 ,5,0,0.,1.2,5.,1.2,0.,1.2,0.,1.2
1979-07-02 15:03:21.720 ,5,0,0.,1.2,8.,1.2,0.,1.2,0.,1.2
1979-07-02 15:03:22.920 ,5,0,2.,1.2,3.,1.2,1.,1.2,0.,1.2
1979-07-02 15:03:24.120 ,5,0,0.,1.2,8.,1.2,0.,1.2,0.,1.2
1979-07-02 15:03:25.320 ,5,0,0.,1.2,3.,1.2,0.,1.2,0.,1.2
1979-07-02 15:03:26.520 ,5,0,1.,1.2,7.,1.2,0.,1.2,0.,1.2
1979-07-02 15:03:27.720 ,5,0,0.,1.2,4.,1.2,0.,1.2,0.,1.2
1979-07-02 15:03:28.920 ,5,0,1.,1.2,4.,1.2,0.,1.2,0.,1.2
1979-07-02 15:03:30.120 ,5,0,0.,1.2,5.,1.2,0.,1.2,0.,1.2
1979-07-02 15:03:31.320 ,5,0,0.,1.2,3.,1.2,0.,1.2,0.,1.2
1979-07-02 15:03:32.520 ,5,0,0.,1.2,5.,1.2,0.,1.2,0.,1.2
1979-07-02 15:03:33.720 ,5,0,0.,1.2,8.,1.2,1.,1.2,0.,1.2
1979-07-02 15:03:34.920 ,5,0,1.,1.2,13.,1.2,0.,1.2,0.,1.2
1979-07-02 15:03:36.120 ,5,0,1.,1.2,2.,1.2,0.,1.2,0.,1.2
1979-07-02 15:03:37.320 ,5,0,2.,1.2,8.,1.2,0.,1.2,0.,1.2
1979-07-02 15:03:38.520 ,5,0,2.,1.2,7.,1.2,0.,1.2,0.,1.2
1979-07-02 15:03:39.720 ,5,0,3.,1.2,9.,1.2,0.,1.2,0.,1.2
1979-07-02 15:03:40.920 ,5,0,0.,1.2,3.,1.2,0.,1.2,0.,1.2
1979-07-02 15:03:42.120 ,5,0,0.,1.2,7.,1.2,0.,1.2,0.,1.2
1979-07-02 15:03:43.320 ,5,0,0.,1.2,8.,1.2,1.,1.2,0.,1.2
1979-07-02 15:03:44.520 ,5,0,2.,1.2,8.,1.2,0.,1.2,0.,1.2
1979-07-02 15:03:45.720 ,5,0,0.,1.2,5.,1.2,0.,1.2,0.,1.2
1979-07-02 15:03:46.920 ,5,0,0.,1.2,4.,1.2,0.,1.2,0.,1.2
1979-07-02 15:03:48.120 ,5,0,2.,1.2,4.,1.2,0.,1.2,0.,1.2
1979-07-02 15:03:49.320 ,5,0,0.,1.2,6.,1.2,0.,1.2,0.,1.2
1979-07-02 15:03:50.520 ,5,0,2.,1.2,10.,1.2,0.,1.2,0.,1.2
1979-07-02 15:03:51.720 ,5,0,0.,1.2,5.,1.2,0.,1.2,0.,1.2
1979-07-02 15:03:52.920 ,5,0,0.,1.2,7.,1.2,0.,1.2,0.,1.2
1979-07-02 15:03:54.120 ,5,0,1.,1.2,6.,1.2,0.,1.2,0.,1.2
1979-07-02 15:03:55.320 ,5,0,0.,1.2,8.,1.2,0.,1.2,0.,1.2
1979-07-02 15:03:56.520 ,5,0,1.,1.2,6.,1.2,0.,1.2,1.,1.2
1979-07-02 15:03:57.720 ,5,0,2.,1.2,5.,1.2,0.,1.2,0.,1.2
1979-07-02 15:03:58.920 ,5,0,0.,1.2,5.,1.2,0.,1.2,0.,1.2
1979-07-02 15:04:00.120 ,6,0,0.,1.2,9.,1.2,0.,1.2,0.,1.2
1979-07-02 15:04:01.320 ,6,0,0.,1.2,6.,1.2,0.,1.2,0.,1.2
1979-07-02 15:04:02.520 ,6,0,0.,1.2,3.,1.2,0.,1.2,0.,1.2
1979-07-02 15:04:03.720 ,6,0,0.,1.2,3.,1.2,0.,1.2,0.,1.2
1979-07-02 15:04:04.920 ,6,0,1.,1.2,6.,1.2,0.,1.2,0.,1.2
1979-07-02 15:04:06.120 ,6,0,2.,1.2,220.,1.2,0.,1.2,0.,1.2
1979-07-02 15:04:07.320 ,6,0,0.,1.2,3.,1.2,0.,1.2,0.,1.2
1979-07-02 15:04:08.520 ,6,0,2.,1.2,8.,1.2,0.,1.2,0.,1.2
1979-07-02 15:04:09.720 ,6,0,0.,1.2,8.,1.2,1.,1.2,0.,1.2
1979-07-02 15:04:10.920 ,6,0,1.,1.2,7.,1.2,0.,1.2,0.,1.2
1979-07-02 15:04:12.120 ,6,0,1.,1.2,6.,1.2,0.,1.2,0.,1.2
1979-07-02 15:04:13.320 ,6,0,1.,1.2,8.,1.2,1.,1.2,0.,1.2
1979-07-02 15:04:14.520 ,6,0,0.,1.2,8.,1.2,0.,1.2,0.,1.2
1979-07-02 15:04:15.720 ,6,0,1.,1.2,7.,1.2,0.,1.2,0.,1.2
1979-07-02 15:04:16.920 ,6,0,1.,1.2,7.,1.2,1.,1.2,0.,1.2
1979-07-02 15:04:18.120 ,6,0,3.,1.2,6.,1.2,0.,1.2,0.,1.2
1979-07-02 15:04:19.320 ,6,0,0.,1.2,4.,1.2,0.,1.2,0.,1.2
1979-07-02 15:04:20.520 ,6,0,2.,1.2,7.,1.2,0.,1.2,0.,1.2
1979-07-02 15:04:21.720 ,6,0,1.,1.2,6.,1.2,0.,1.2,0.,1.2
1979-07-02 15:04:22.920 ,6,0,0.,1.2,7.,1.2,0.,1.2,0.,1.2
1979-07-02 15:04:24.120 ,6,0,0.,1.2,6.,1.2,0.,1.2,0.,1.2
1979-07-02 15:04:25.320 ,6,0,1.,1.2,7.,1.2,1.,1.2,0.,1.2
1979-07-02 15:04:26.520 ,6,0,0.,1.2,5.,1.2,0.,1.2,0.,1.2
1979-07-02 15:04:27.720 ,6,0,1.,1.2,8.,1.2,0.,1.2,0.,1.2
1979-07-02 15:04:28.920 ,6,0,1.,1.2,11.,1.2,0.,1.2,0.,1.2
1979-07-02 15:04:30.120 ,6,0,1.,1.2,6.,1.2,0.,1.2,0.,1.2
1979-07-02 15:04:31.320 ,6,0,1.,1.2,7.,1.2,0.,1.2,0.,1.2
1979-07-02 15:04:32.520 ,6,0,1.,1.2,7.,1.2,0.,1.2,0.,1.2
1979-07-02 15:04:33.720 ,6,0,0.,1.2,5.,1.2,0.,1.2,0.,1.2
1979-07-02 15:04:34.920 ,6,0,1.,1.2,2.,1.2,0.,1.2,0.,1.2
1979-07-02 15:04:36.120 ,6,0,0.,1.2,6.,1.2,0.,1.2,1.,1.2
1979-07-02 15:04:37.320 ,6,0,1.,1.2,6.,1.2,0.,1.2,0.,1.2
1979-07-02 15:04:38.520 ,6,0,3.,1.2,5.,1.2,0.,1.2,0.,1.2
1979-07-02 15:04:39.720 ,6,0,1.,1.2,10.,1.2,0.,1.2,0.,1.2
1979-07-02 15:04:40.920 ,6,0,0.,1.2,11.,1.2,1.,1.2,0.,1.2
1979-07-02 15:04:42.120 ,6,0,0.,1.2,6.,1.2,0.,1.2,0.,1.2
1979-07-02 15:04:43.320 ,6,0,1.,1.2,8.,1.2,0.,1.2,0.,1.2
1979-07-02 15:04:44.520 ,6,0,0.,1.2,2.,1.2,0.,1.2,0.,1.2
1979-07-02 15:04:45.720 ,6,0,0.,1.2,6.,1.2,0.,1.2,0.,1.2
1979-07-02 15:04:46.920 ,6,0,0.,1.2,9.,1.2,0.,1.2,0.,1.2
1979-07-02 15:04:48.120 ,7,0,0.,1.2,0.,1.2,0.,1.2,0.,1.2
1979-07-02 15:04:49.320 ,7,0,2.,1.2,7.,1.2,0.,1.2,0.,1.2
1979-07-02 15:04:50.520 ,7,0,1.,1.2,10.,1.2,1.,1.2,0.,1.2
1979-07-02 15:04:51.720 ,7,0,1.,1.2,4.,1.2,0.,1.2,0.,1.2
1979-07-02 15:04:52.920 ,7,0,1.,1.2,8.,1.2,0.,1.2,0.,1.2
1979-07-02 15:04:54.120 ,7,0,0.,1.2,236.,1.2,2.,1.2,0.,1.2
1979-07-02 15:04:55.320 ,7,0,0.,1.2,6.,1.2,10.,1.2,0.,1.2
1979-07-02 15:04:56.520 ,7,0,1.,1.2,7.,1.2,4.,1.2,0.,1.2
1979-07-02 15:04:57.720 ,7,0,0.,1.2,11.,1.2,4.,1.2,0.,1.2
1979-07-02 15:04:58.920 ,7,0,0.,1.2,8.,1.2,6.,1.2,0.,1.2
1979-07-02 15:05:00.120 ,7,0,0.,1.2,10.,1.2,5.,1.2,0.,1.2
1979-07-02 15:05:01.320 ,7,0,0.,1.2,5.,1.2,7.,1.2,0.,1.2
1979-07-02 15:05:02.520 ,7,0,0.,1.2,5.,1.2,4.,1.2,0.,1.2
1979-07-02 15:05:03.720 ,7,0,0.,1.2,7.,1.2,7.,1.2,0.,1.2
1979-07-02 15:05:04.920 ,7,0,0.,1.2,4.,1.2,5.,1.2,0.,1.2
1979-07-02 15:05:06.120 ,7,0,0.,1.2,6.,1.2,4.,1.2,0.,1.2
1979-07-02 15:05:07.320 ,7,0,0.,1.2,4.,1.2,9.,1.2,0.,1.2
1979-07-02 15:05:08.520 ,7,0,0.,1.2,5.,1.2,3.,1.2,0.,1.2
1979-07-02 15:05:09.720 ,7,0,0.,1.2,5.,1.2,9.,1.2,0.,1.2
1979-07-02 15:05:10.920 ,7,0,0.,1.2,4.,1.2,3.,1.2,0.,1.2
1979-07-02 15:05:12.120 ,7,0,0.,1.2,8.,1.2,10.,1.2,0.,1.2
1979-07-02 15:05:13.320 ,7,0,0.,1.2,2.,1.2,5.,1.2,0.,1.2
1979-07-02 15:05:14.520 ,7,0,0.,1.2,10.,1.2,6.,1.2,0.,1.2
1979-07-02 15:05:15.720 ,7,0,0.,1.2,5.,1.2,2.,1.2,0.,1.2
1979-07-02 15:05:16.920 ,7,0,0.,1.2,6.,1.2,4.,1.2,0.,1.2
1979-07-02 15:05:18.120 ,7,0,0.,1.2,4.,1.2,4.,1.2,0.,1.2
1979-07-02 15:05:19.320 ,7,0,0.,1.2,7.,1.2,0.,1.2,0.,1.2
1979-07-02 15:05:20.520 ,7,0,0.,1.2,2.,1.2,4.,1.2,0.,1.2
1979-07-02 15:05:21.720 ,7,0,0.,1.2,4.,1.2,10.,1.2,0.,1.2
1979-07-02 15:05:22.920 ,7,0,0.,1.2,15.,1.2,3.,1.2,0.,1.2
1979-07-02 15:05:24.120 ,7,0,0.,1.2,4.,1.2,4.,1.2,0.,1.2
1979-07-02 15:05:25.320 ,7,0,0.,1.2,6.,1.2,6.,1.2,0.,1.2
1979-07-02 15:05:26.520 ,7,0,0.,1.2,6.,1.2,5.,1.2,0.,1.2
1979-07-02 15:05:27.720 ,7,0,0.,1.2,7.,1.2,6.,1.2,0.,1.2
1979-07-02 15:05:28.920 ,7,0,0.,1.2,6.,1.2,5.,1.2,0.,1.2
1979-07-02 15:05:30.120 ,7,0,0.,1.2,6.,1.2,4.,1.2,0.,1.2
1979-07-02 15:05:31.320 ,7,0,0.,1.2,6.,1.2,6.,1.2,0.,1.2
1979-07-02 15:05:32.520 ,7,0,0.,1.2,7.,1.2,10.,1.2,0.,1.2
1979-07-02 15:05:33.720 ,7,0,0.,1.2,7.,1.2,7.,1.2,0.,1.2
1979-07-02 15:05:34.920 ,7,0,0.,1.2,4.,1.2,6.,1.2,0.,1.2
1979-07-02 15:05:36.120 ,7,0,0.,1.2,3.,1.2,9.,1.2,0.,1.2
1979-07-02 15:05:37.320 ,7,0,0.,1.2,6.,1.2,7.,1.2,0.,1.2
1979-07-02 15:05:38.520 ,7,0,0.,1.2,3.,1.2,5.,1.2,0.,1.2
1979-07-02 15:05:39.720 ,7,0,0.,1.2,4.,1.2,4.,1.2,0.,1.2
1979-07-02 15:05:40.920 ,7,0,0.,1.2,6.,1.2,14.,1.2,0.,1.2
1979-07-02 15:05:42.120 ,7,0,1.,1.2,7.,1.2,7.,1.2,0.,1.2
1979-07-02 15:05:43.320 ,7,0,0.,1.2,7.,1.2,4.,1.2,0.,1.2
1979-07-02 15:05:44.520 ,7,0,0.,1.2,7.,1.2,8.,1.2,0.,1.2
1979-07-02 15:05:45.720 ,7,0,0.,1.2,6.,1.2,3.,1.2,0.,1.2
1979-07-02 15:05:46.920 ,7,0,0.,1.2,11.,1.2,5.,1.2,0.,1.2
1979-07-02 15:05:48.120 ,7,0,0.,1.2,7.,1.2,5.,1.2,0.,1.2
1979-07-02 15:05:49.320 ,7,0,0.,1.2,6.,1.2,7.,1.2,0.,1.2
1979-07-02 15:05:50.520 ,7,0,0.,1.2,3.,1.2,5.,1.2,0.,1.2
1979-07-02 15:05:51.720 ,7,0,0.,1.2,7.,1.2,4.,1.2,0.,1.2
1979-07-02 15:05:52.920 ,7,0,0.,1.2,4.,1.2,6.,1.2,0.,1.2
1979-07-02 15:05:54.120 ,7,0,0.,1.2,7.,1.2,4.,1.2,0.,1.2
1979-07-02 15:05:55.320 ,7,0,0.,1.2,1.,1.2,6.,1.2,0.,1.2
1979-07-02 15:05:56.520 ,7,0,0.,1.2,3.,1.2,9.,1.2,0.,1.2
1979-07-02 15:05:57.720 ,7,0,0.,1.2,11.,1.2,6.,1.2,0.,1.2
1979-07-02 15:05:58.920 ,7,0,0.,1.2,4.,1.2,5.,1.2,0.,1.2
1979-07-02 15:06:00.120 ,7,0,0.,1.2,5.,1.2,2.,1.2,0.,1.2
1979-07-02 15:06:01.320 ,7,0,0.,1.2,3.,1.2,10.,1.2,0.,1.2
1979-07-02 15:06:02.520 ,7,0,0.,1.2,8.,1.2,10.,1.2,0.,1.2
1979-07-02 15:06:03.720 ,7,0,0.,1.2,6.,1.2,4.,1.2,0.,1.2
1979-07-02 15:06:04.920 ,7,0,0.,1.2,5.,1.2,7.,1.2,0.,1.2
1979-07-02 15:06:06.120 ,7,0,0.,1.2,6.,1.2,2.,1.2,0.,1.2
1979-07-02 15:06:07.320 ,7,0,0.,1.2,7.,1.2,8.,1.2,0.,1.2
1979-07-02 15:06:08.520 ,7,0,0.,1.2,9.,1.2,7.,1.2,0.,1.2
1979-07-02 15:06:09.720 ,7,0,0.,1.2,3.,1.2,5.,1.2,0.,1.2
1979-07-02 15:06:10.920 ,7,0,0.,1.2,7.,1.2,6.,1.2,0.,1.2
1979-07-02 15:06:12.120 ,7,0,0.,1.2,10.,1.2,6.,1.2,0.,1.2
1979-07-02 15:06:13.320 ,7,0,0.,1.2,5.,1.2,5.,1.2,0.,1.2
1979-07-02 15:06:14.520 ,7,0,0.,1.2,11.,1.2,5.,1.2,1.,1.2
1979-07-02 15:06:15.720 ,7,0,0.,1.2,2.,1.2,6.,1.2,0.,1.2
1979-07-02 15:06:16.920 ,7,0,0.,1.2,5.,1.2,5.,1.2,0.,1.2
1979-07-02 15:06:18.120 ,7,0,0.,1.2,3.,1.2,2.,1.2,0.,1.2
1979-07-02 15:06:19.320 ,7,0,0.,1.2,6.,1.2,5.,1.2,0.,1.2
1979-07-02 15:06:20.520 ,7,0,0.,1.2,3.,1.2,7.,1.2,0.,1.2
1979-07-02 15:06:21.720 ,7,0,0.,1.2,6.,1.2,6.,1.2,0.,1.2
1979-07-02 15:06:22.920 ,7,0,0.,1.2,5.,1.2,5.,1.2,0.,1.2
1979-07-02 15:06:24.120 ,6,0,0.,1.2,3.,1.2,9.,1.2,0.,1.2
1979-07-02 15:06:25.320 ,6,0,0.,1.2,6.,1.2,5.,1.2,0.,1.2
1979-07-02 15:06:26.520 ,6,0,0.,1.2,5.,1.2,3.,1.2,0.,1.2
1979-07-02 15:06:27.720 ,6,0,0.,1.2,4.,1.2,5.,1.2,0.,1.2
1979-07-02 15:06:28.920 ,6,0,0.,1.2,0.,1.2,10.,1.2,0.,1.2
1979-07-02 15:06:30.120 ,6,0,0.,1.2,220.,1.2,2.,1.2,0.,1.2
1979-07-02 15:06:31.320 ,6,0,0.,1.2,9.,1.2,1.,1.2,0.,1.2
1979-07-02 15:06:32.520 ,6,0,0.,1.2,4.,1.2,0.,1.2,0.,1.2
1979-07-02 15:06:33.720 ,6,0,0.,1.2,10.,1.2,0.,1.2,0.,1.2
1979-07-02 15:06:34.920 ,6,0,3.,1.2,9.,1.2,0.,1.2,0.,1.2
1979-07-02 15:06:36.120 ,6,0,2.,1.2,12.,1.2,1.,1.2,0.,1.2
1979-07-02 15:06:37.320 ,6,0,0.,1.2,6.,1.2,1.,1.2,0.,1.2
1979-07-02 15:06:38.520 ,6,0,0.,1.2,7.,1.2,0.,1.2,0.,1.2
1979-07-02 15:06:39.720 ,6,0,0.,1.2,6.,1.2,0.,1.2,0.,1.2
1979-07-02 15:06:40.920 ,6,0,1.,1.2,2.,1.2,0.,1.2,0.,1.2
1979-07-02 15:06:42.120 ,6,0,0.,1.2,5.,1.2,0.,1.2,0.,1.2
1979-07-02 15:06:43.320 ,6,0,2.,1.2,5.,1.2,1.,1.2,0.,1.2
1979-07-02 15:06:44.520 ,6,0,1.,1.2,8.,1.2,1.,1.2,0.,1.2
1979-07-02 15:06:45.720 ,6,0,2.,1.2,5.,1.2,0.,1.2,0.,1.2
1979-07-02 15:06:46.920 ,6,0,1.,1.2,9.,1.2,0.,1.2,0.,1.2
1979-07-02 15:06:48.120 ,6,0,1.,1.2,10.,1.2,0.,1.2,0.,1.2
1979-07-02 15:06:49.320 ,6,0,2.,1.2,4.,1.2,0.,1.2,0.,1.2
1979-07-02 15:06:50.520 ,6,0,1.,1.2,7.,1.2,0.,1.2,0.,1.2
1979-07-02 15:06:51.720 ,6,0,1.,1.2,5.,1.2,0.,1.2,0.,1.2
1979-07-02 15:06:52.920 ,6,0,2.,1.2,10.,1.2,0.,1.2,0.,1.2
1979-07-02 15:06:54.120 ,6,0,0.,1.2,3.,1.2,0.,1.2,0.,1.2
1979-07-02 15:06:55.320 ,6,0,2.,1.2,7.,1.2,0.,1.2,0.,1.2
1979-07-02 15:06:56.520 ,6,0,0.,1.2,1.,1.2,0.,1.2,0.,1.2
1979-07-02 15:06:57.720 ,6,0,3.,1.2,6.,1.2,0.,1.2,0.,1.2
1979-07-02 15:06:58.920 ,6,0,1.,1.2,1.,1.2,0.,1.2,0.,1.2
1979-07-02 15:07:00.120 ,6,0,0.,1.2,4.,1.2,0.,1.2,0.,1.2
1979-07-02 15:07:01.320 ,6,0,1.,1.2,4.,1.2,0.,1.2,0.,1.2
1979-07-02 15:07:02.520 ,6,0,0.,1.2,9.,1.2,0.,1.2,0.,1.2
1979-07-02 15:07:03.720 ,6,0,2.,1.2,12.,1.2,0.,1.2,0.,1.2
1979-07-02 15:07:04.920 ,6,0,0.,1.2,6.,1.2,0.,1.2,0.,1.2
1979-07-02 15:07:06.120 ,6,0,1.,1.2,7.,1.2,0.,1.2,0.,1.2
1979-07-02 15:07:07.320 ,6,0,0.,1.2,2.,1.2,0.,1.2,0.,1.2
1979-07-02 15:07:08.520 ,6,0,0.,1.2,9.,1.2,0.,1.2,0.,1.2
1979-07-02 15:07:09.720 ,6,0,1.,1.2,11.,1.2,0.,1.2,0.,1.2
1979-07-02 15:07:10.920 ,6,0,2.,1.2,8.,1.2,0.,1.2,0.,1.2
1979-07-02 15:07:12.120 ,5,0,0.,1.2,6.,1.2,0.,1.2,0.,1.2
1979-07-02 15:07:13.320 ,5,0,1.,1.2,7.,1.2,0.,1.2,0.,1.2
1979-07-02 15:07:14.520 ,5,0,1.,1.2,11.,1.2,0.,1.2,0.,1.2
1979-07-02 15:07:15.720 ,5,0,1.,1.2,4.,1.2,0.,1.2,0.,1.2
1979-07-02 15:07:16.920 ,5,0,3.,1.2,5.,1.2,0.,1.2,0.,1.2
1979-07-02 15:07:18.120 ,5,0,1.,1.2,240.,1.2,0.,1.2,0.,1.2
1979-07-02 15:07:19.320 ,5,0,2.,1.2,6.,1.2,0.,1.2,0.,1.2
1979-07-02 15:07:20.520 ,5,0,1.,1.2,4.,1.2,0.,1.2,0.,1.2
1979-07-02 15:07:21.720 ,5,0,0.,1.2,9.,1.2,0.,1.2,0.,1.2
1979-07-02 15:07:22.920 ,5,0,0.,1.2,6.,1.2,0.,1.2,0.,1.2
1979-07-02 15:07:24.120 ,5,0,0.,1.2,4.,1.2,0.,1.2,0.,1.2
1979-07-02 15:07:25.320 ,5,0,0.,1.2,8.,1.2,0.,1.2,0.,1.2
1979-07-02 15:07:26.520 ,5,0,1.,1.2,5.,1.2,0.,1.2,0.,1.2
1979-07-02 15:07:27.720 ,5,0,0.,1.2,7.,1.2,0.,1.2,0.,1.2
1979-07-02 15:07:28.920 ,5,0,1.,1.2,5.,1.2,0.,1.2,0.,1.2
1979-07-02 15:07:30.120 ,5,0,1.,1.2,3.,1.2,0.,1.2,0.,1.2
1979-07-02 15:07:31.320 ,5,0,1.,1.2,9.,1.2,0.,1.2,0.,1.2
1979-07-02 15:07:32.520 ,5,0,0.,1.2,9.,1.2,0.,1.2,0.,1.2
1979-07-02 15:07:33.720 ,5,0,1.,1.2,4.,1.2,0.,1.2,0.,1.2
1979-07-02 15:07:34.920 ,5,0,2.,1.2,5.,1.2,0.,1.2,0.,1.2
1979-07-02 15:07:36.120 ,5,0,0.,1.2,8.,1.2,0.,1.2,0.,1.2
1979-07-02 15:07:37.320 ,5,0,0.,1.2,8.,1.2,0.,1.2,0.,1.2
1979-07-02 15:07:38.520 ,5,0,1.,1.2,6.,1.2,0.,1.2,0.,1.2
1979-07-02 15:07:39.720 ,5,0,0.,1.2,1.,1.2,1.,1.2,0.,1.2
1979-07-02 15:07:40.920 ,5,0,1.,1.2,5.,1.2,0.,1.2,0.,1.2
1979-07-02 15:07:42.120 ,5,0,0.,1.2,7.,1.2,0.,1.2,0.,1.2
1979-07-02 15:07:43.320 ,5,0,2.,1.2,6.,1.2,0.,1.2,0.,1.2
1979-07-02 15:07:44.520 ,5,0,0.,1.2,6.,1.2,0.,1.2,0.,1.2
1979-07-02 15:07:45.720 ,5,0,2.,1.2,0.,1.2,0.,1.2,0.,1.2
1979-07-02 15:07:46.920 ,5,0,0.,1.2,4.,1.2,1.,1.2,0.,1.2
1979-07-02 15:07:48.120 ,5,0,0.,1.2,4.,1.2,0.,1.2,0.,1.2
1979-07-02 15:07:49.320 ,5,0,0.,1.2,7.,1.2,0.,1.2,0.,1.2
1979-07-02 15:07:50.520 ,5,0,2.,1.2,6.,1.2,0.,1.2,0.,1.2
1979-07-02 15:07:51.720 ,5,0,0.,1.2,8.,1.2,0.,1.2,0.,1.2
1979-07-02 15:07:52.920 ,5,0,0.,1.2,7.,1.2,0.,1.2,0.,1.2
1979-07-02 15:07:54.120 ,5,0,0.,1.2,3.,1.2,0.,1.2,0.,1.2
1979-07-02 15:07:55.320 ,5,0,0.,1.2,10.,1.2,0.,1.2,0.,1.2
1979-07-02 15:07:56.520 ,5,0,0.,1.2,2.,1.2,0.,1.2,0.,1.2
1979-07-02 15:07:57.720 ,5,0,1.,1.2,5.,1.2,1.,1.2,0.,1.2
1979-07-02 15:07:58.920 ,5,0,0.,1.2,7.,1.2,0.,1.2,0.,1.2
1979-07-02 15:08:00.120 ,4,0,1.,1.2,8.,1.2,0.,1.2,0.,1.2
1979-07-02 15:08:01.320 ,4,0,1.,1.2,6.,1.2,0.,1.2,0.,1.2
1979-07-02 15:08:02.520 ,4,0,1.,1.2,6.,1.2,0.,1.2,0.,1.2
1979-07-02 15:08:03.720 ,4,0,1.,1.2,3.,1.2,0.,1.2,0.,1.2
1979-07-02 15:08:04.920 ,4,0,0.,1.2,6.,1.2,0.,1.2,0.,1.2
1979-07-02 15:08:06.120 ,4,0,0.,1.2,148.,1.2,1.,1.2,0.,1.2
1979-07-02 15:08:07.320 ,4,0,2.,1.2,6.,1.2,0.,1.2,0.,1.2
1979-07-02 15:08:08.520 ,4,0,4.,1.2,8.,1.2,0.,1.2,0.,1.2
1979-07-02 15:08:09.720 ,4,0,0.,1.2,9.,1.2,0.,1.2,0.,1.2
1979-07-02 15:08:10.920 ,4,0,1.,1.2,2.,1.2,0.,1.2,0.,1.2
1979-07-02 15:08:12.120 ,4,0,1.,1.2,5.,1.2,1.,1.2,0.,1.2
1979-07-02 15:08:13.320 ,4,0,2.,1.2,3.,1.2,0.,1.2,0.,1.2
1979-07-02 15:08:14.520 ,4,0,0.,1.2,3.,1.2,1.,1.2,0.,1.2
1979-07-02 15:08:15.720 ,4,0,0.,1.2,5.,1.2,0.,1.2,0.,1.2
1979-07-02 15:08:16.920 ,4,0,0.,1.2,3.,1.2,2.,1.2,0.,1.2
1979-07-02 15:08:18.120 ,4,0,1.,1.2,4.,1.2,0.,1.2,0.,1.2
1979-07-02 15:08:19.320 ,4,0,1.,1.2,4.,1.2,0.,1.2,0.,1.2
1979-07-02 15:08:20.520 ,4,0,0.,1.2,5.,1.2,0.,1.2,0.,1.2
1979-07-02 15:08:21.720 ,4,0,1.,1.2,8.,1.2,0.,1.2,0.,1.2
1979-07-02 15:08:22.920 ,4,0,1.,1.2,12.,1.2,0.,1.2,0.,1.2
1979-07-02 15:08:24.120 ,4,0,0.,1.2,9.,1.2,0.,1.2,0.,1.2
1979-07-02 15:08:25.320 ,4,0,0.,1.2,7.,1.2,0.,1.2,0.,1.2
1979-07-02 15:08:26.520 ,4,0,2.,1.2,8.,1.2,0.,1.2,0.,1.2
1979-07-02 15:08:27.720 ,4,0,0.,1.2,3.,1.2,0.,1.2,0.,1.2
1979-07-02 15:08:28.920 ,4,0,1.,1.2,9.,1.2,0.,1.2,0.,1.2
1979-07-02 15:08:30.120 ,4,0,0.,1.2,3.,1.2,0.,1.2,0.,1.2
1979-07-02 15:08:31.320 ,4,0,0.,1.2,3.,1.2,0.,1.2,0.,1.2
1979-07-02 15:08:32.520 ,4,0,0.,1.2,5.,1.2,0.,1.2,0.,1.2
1979-07-02 15:08:33.720 ,4,0,0.,1.2,4.,1.2,0.,1.2,0.,1.2
1979-07-02 15:08:34.920 ,4,0,0.,1.2,5.,1.2,0.,1.2,0.,1.2
1979-07-02 15:08:36.120 ,4,0,0.,1.2,9.,1.2,0.,1.2,0.,1.2
1979-07-02 15:08:37.320 ,4,0,1.,1.2,6.,1.2,0.,1.2,0.,1.2